[[{"header":{"parameterUnit":"m.s-1","parameterCategory":1,"la1":30.2991,"la2":30.254,"lo1":-89.0895,"lo2":-89.0444,"dy":0.0017,"dx":0.0017,"nx":28,"ny":28,"refTime":"2024-06-12T21:00:00:Z","depth":0,"parameterNumber":2,"parameterNumberName":"U-component_of_WINDS"},"data":[0,0,0,0,0,0,0,0,0,0,0,0,0,0,0,0,0,0,0,0,0,0,0,0,0,0,0,0,0,0,0,0,0,0,0,0,0,0,0,0,0,0,0,0,0,0,0,0,0,0,0,0,0,0,0,0,0,0,0.6016,0.6018,0,0.6158,0.616,0.6162,0.6235,0.6235,0.6235,0.6235,0.6382,0.6386,0.639,0,0,0,0,0,0,0,0,0,0,0,0,0,0.5807,0.5811,0.6016,0.6018,0.602,0.6158,0.616,0.6162,0.6235,0.6235,0.6235,0.6235,0.6381,0.6386,0.639,0,0,0,0,0,0,0,0,0,0,0,0,0,0.5919,0.5812,0.6016,0.6072,0.6079,0.6158,0.616,0.6163,0.6235,0.6235,0.6235,0.6235,0.638,0.6385,0.6391,0.6425,0,0,0.6409,0.6411,0,0,0,0,0,0,0,0,0.5912,0.5926,0.6062,0.6069,0.6076,0.6179,0.6141,0.6251,0.6235,0.6176,0.6235,0.6235,0.6315,0.6326,0.6352,0.6432,0.6438,0.6409,0.6413,0.6415,0.6417,0,0,0,0,0,0,0,0.5904,0.592,0.6072,0.6064,0.6073,0.6091,0.6107,0.6162,0.6243,0.6181,0.6186,0.6202,0.6318,0.6347,0.6356,0.644,0.6409,0.6414,0.6418,0.642,0.6553,0.6553,0,0,0,0,0,0,0.5887,0.5913,0.6068,0.6077,0.5993,0.6094,0.6112,0.6146,0.6242,0.6257,0.6202,0.6205,0.6337,0.6349,0.6362,0.6407,0.6415,0.6421,0.6424,0.6553,0.6553,0.6553,0,0,0,0,0,0,0.5883,0.59,0.6062,0.5997,0.6019,0.6098,0.6135,0.6149,0.6177,0.6258,0.6273,0.6216,0.6337,0.6354,0.6408,0.6413,0.6423,0.6428,0.6553,0.6553,0.6553,0.6498,0,0,0,0,0,0,0.5876,0.5898,0.5912,0.5996,0.6022,0.6106,0.6135,0.6151,0.6186,0.6192,0.6275,0.6289,0.6339,0.6399,0.6414,0.6421,0.6433,0.6553,0.6553,0.6553,0.65,0.6496,0.6493,0,0,0,0,0,0.5869,0.5891,0.5912,0.593,0.604,0.6106,0.612,0.6176,0.6186,0.6201,0.6253,0.6287,0.641,0.6404,0.6421,0.6431,0.6553,0.6553,0.6553,0.6501,0.6497,0.6493,0,0,0,0,0,0,0.5806,0.5903,0.5928,0.5978,0.6033,0.6118,0.6138,0.617,0.6223,0.6226,0.6294,0.6312,0.636,0.6401,0.6392,0.6468,0.6485,0.6488,0.6439,0.6436,0.6433,0.6422,0.6438,0,0,0,0,0,0.5798,0.5843,0.5926,0.5962,0.5988,0.6058,0.6089,0.6127,0.6186,0.621,0.6267,0.6323,0.6375,0.6408,0.646,0.6506,0.6525,0.6521,0.6517,0.6514,0.6517,0.6543,0.6542,0.6554,0.6554,0.6554,0,0,0.5782,0.5841,0.5865,0.5951,0.5998,0.6043,0.6077,0.6123,0.6157,0.6218,0.6272,0.6315,0.6383,0.6433,0.6458,0.6469,0.6517,0.6514,0.6511,0.6516,0.6543,0.6542,0.6541,0.6554,0.6554,0.6554,0,0,0.5776,0.5825,0.5861,0.5907,0.5977,0.6023,0.6031,0.6111,0.6142,0.6197,0.6243,0.6284,0.6372,0.6418,0.6453,0.6463,0.6496,0.6478,0.6461,0.6486,0.6485,0.6485,0.6487,0.6488,0.648,0.648,0.648,0,0.5748,0.5817,0.5875,0.5918,0.5954,0.601,0.6046,0.6088,0.6172,0.6195,0.6206,0.6316,0.6366,0.6427,0.6429,0.6456,0.6467,0.6469,0.648,0.6481,0.6481,0.6484,0.6485,0.6477,0.6478,0.6478,0.6478,0,0.5778,0.5825,0.5845,0.5924,0.5962,0.6002,0.6066,0.6098,0.6132,0.6177,0.6232,0.6293,0.6358,0.6376,0.641,0.6442,0.6446,0.6467,0.6486,0.6476,0.6481,0.6482,0.6474,0.6475,0.6475,0.6476,0,0,0.5738,0.5847,0.5853,0.5889,0.597,0.6007,0.6049,0.6112,0.6137,0.6193,0.623,0.6302,0.6322,0.6361,0.6401,0.6423,0.6426,0.6442,0.6445,0.6437,0.6463,0.6446,0.6447,0.6448,0.6448,0.6449,0.6457,0,0.5743,0.582,0.5873,0.5929,0.5973,0.6025,0.6062,0.6115,0.6157,0.6201,0.6248,0.6298,0.6321,0.6345,0.6369,0.642,0.6432,0.6421,0.6482,0.6484,0.6463,0.6449,0.6432,0.6437,0.6459,0.646,0.646,0,0.5759,0.5812,0.5872,0.5947,0.5968,0.5999,0.6061,0.6101,0.6163,0.6192,0.6235,0.6276,0.6322,0.6336,0.64,0.6391,0.6419,0.6448,0.6449,0.6457,0.6471,0.6456,0.644,0.644,0.6464,0.6463,0.6463,0,0.5723,0.5809,0.5856,0.5885,0.5974,0.5995,0.6033,0.6095,0.6128,0.6182,0.6204,0.6263,0.6295,0.6339,0.6394,0.6399,0.6452,0.6471,0.6478,0.6476,0.6487,0.6485,0.6474,0.6505,0.6505,0.6505,0.6505,0,0.5723,0.5758,0.5841,0.587,0.591,0.597,0.6008,0.6051,0.6105,0.6143,0.6192,0.6227,0.6297,0.634,0.6384,0.643,0.6444,0.6469,0.648,0.6464,0.6461,0.6484,0.6485,0.6505,0.6505,0.6505,0.6505,0,0.569,0.5747,0.5801,0.588,0.5901,0.5927,0.5995,0.6025,0.6069,0.6117,0.6131,0.6201,0.6255,0.6314,0.6387,0.6416,0.6459,0.6475,0.6438,0.6444,0.6448,0.6446,0.6451,0.6454,0.6482,0.6482,0.6482,0,0.5686,0.5714,0.5795,0.5824,0.586,0.5906,0.594,0.6,0.6034,0.6105,0.6126,0.6183,0.6231,0.6314,0.6372,0.6428,0.6445,0.6443,0.6454,0.6437,0.6445,0.6442,0.6445,0.644,0.6439,0.6439,0.6438,0,0.5673,0.5699,0.5747,0.5804,0.5844,0.5892,0.5942,0.5962,0.6032,0.6068,0.6122,0.6159,0.6233,0.6289,0.6351,0.6391,0.6426,0.6434,0.6438,0.6423,0.64,0.6411,0.6429,0.6434,0.6434,0.6435,0.6435,0.6435,0.5654,0.5681,0.5742,0.5793,0.5837,0.5882,0.5913,0.5961,0.6008,0.6072,0.6104,0.6158,0.6218,0.6306,0.6344,0.6387,0.6398,0.6405,0.6407,0.6407,0.6402,0.6392,0.6399,0.6399,0.6399,0.6399,0.6399,0,0.5643,0.5685,0.5731,0.5799,0.5839,0.5867,0.5924,0.5955,0.6002,0.6054,0.61,0.6162,0.6216,0.6277,0.6335,0.6357,0.6374,0.637,0.6369,0.6377,0.6389,0.6379,0.6355,0.6355,0.6355,0.6355,0.6355,0.6355,0.5642,0.5689,0.5722,0.579,0.5832,0.5884,0.5914,0.5956,0.5998,0.6064,0.6109,0.6148,0.6204,0.6265,0.6316,0.6332,0.6351,0.6342,0.6363,0.6373,0.6377,0.638,0.6371,0.6345,0.6345,0.6347,0.6347,0.6347]},{"header":{"parameterUnit":"m.s-1","parameterCategory":1,"la1":30.2991,"la2":30.254,"lo1":-89.0895,"lo2":-89.0444,"dy":0.0017,"dx":0.0017,"nx":28,"ny":28,"refTime":"2024-06-12T21:00:00:Z","depth":0,"parameterNumber":3,"parameterNumberName":"V-component_of_WINDS"},"data":[0,0,0,0,0,0,0,0,0,0,0,0,0,0,0,0,0,0,0,0,0,0,0,0,0,0,0,0,0,0,0,0,0,0,0,0,0,0,0,0,0,0,0,0,0,0,0,0,0,0,0,0,0,0,0,0,0,0,2.9787,2.9786,0,2.9725,2.9724,2.9723,2.9674,2.9673,2.9673,2.9672,2.9605,2.9604,2.9602,0,0,0,0,0,0,0,0,0,0,0,0,0,2.9859,2.9858,2.9787,2.9786,2.9785,2.9725,2.9724,2.9723,2.9674,2.9673,2.9673,2.9672,2.9605,2.9604,2.9602,0,0,0,0,0,0,0,0,0,0,0,0,0,2.9816,2.9858,2.9787,2.9754,2.975,2.9725,2.9724,2.9723,2.9674,2.9673,2.9673,2.9672,2.9606,2.9604,2.9602,2.9604,0,0,2.9596,2.9595,0,0,0,0,0,0,0,0,2.9818,2.9813,2.9759,2.9756,2.9752,2.9706,2.9725,2.9683,2.9674,2.9703,2.9672,2.9672,2.9639,2.9634,2.9624,2.9601,2.9598,2.9596,2.9594,2.9594,2.9593,0,0,0,0,0,0,0,2.9821,2.9815,2.9762,2.9759,2.9754,2.974,2.9733,2.9717,2.9676,2.97,2.9697,2.969,2.9637,2.9626,2.9622,2.9597,2.9596,2.9594,2.9593,2.9592,2.957,2.957,0,0,0,0,0,0,2.983,2.9818,2.9764,2.976,2.9784,2.974,2.9732,2.9722,2.9676,2.9668,2.9691,2.9688,2.963,2.9625,2.962,2.9617,2.9594,2.9592,2.9591,2.9569,2.957,2.9571,0,0,0,0,0,0,2.9832,2.9826,2.9767,2.9788,2.978,2.9739,2.9728,2.9721,2.971,2.9669,2.9661,2.9687,2.9629,2.9622,2.9608,2.9614,2.9591,2.9589,2.9568,2.9569,2.957,2.9613,0,0,0,0,0,0,2.9834,2.9827,2.9828,2.9789,2.9779,2.9757,2.9729,2.972,2.9707,2.9703,2.9663,2.9656,2.9628,2.9611,2.9606,2.9611,2.9587,2.9568,2.9569,2.957,2.9611,2.9615,2.9619,0,0,0,0,0,2.9837,2.9842,2.9828,2.9822,2.978,2.9758,2.9752,2.9721,2.9708,2.9708,2.9681,2.9657,2.9615,2.961,2.9604,2.9608,2.9567,2.9569,2.957,2.9609,2.9615,2.9619,0,0,0,0,0,0,2.9882,2.9836,2.982,2.9813,2.979,2.975,2.9749,2.9728,2.9707,2.9703,2.9664,2.9656,2.9645,2.9625,2.9621,2.9607,2.9588,2.9588,2.962,2.9625,2.9629,2.9633,2.9586,0,0,0,0,0,2.9891,2.9878,2.9839,2.9836,2.9826,2.979,2.9779,2.9757,2.9731,2.972,2.9692,2.9667,2.9647,2.9635,2.9615,2.9609,2.9598,2.9608,2.9612,2.9616,2.9616,2.9609,2.9612,2.9575,2.9575,2.9575,0,0,2.991,2.9883,2.9877,2.9845,2.9824,2.981,2.9781,2.9768,2.9757,2.9718,2.9702,2.9681,2.9649,2.9639,2.9632,2.9622,2.9624,2.9618,2.9621,2.9619,2.9611,2.9614,2.9617,2.9576,2.9576,2.9576,0,0,2.9936,2.9916,2.9911,2.9891,2.986,2.9836,2.9835,2.9798,2.9782,2.9767,2.9736,2.9722,2.969,2.9668,2.9653,2.9671,2.9648,2.9666,2.9687,2.968,2.9683,2.9686,2.969,2.9692,2.9666,2.9667,2.9667,0,2.9962,2.9942,2.991,2.9899,2.9885,2.985,2.9843,2.9825,2.9789,2.9779,2.9768,2.9727,2.9703,2.9686,2.969,2.968,2.9676,2.9669,2.9686,2.9688,2.9689,2.9693,2.9695,2.9669,2.9668,2.9668,2.9668,0,2.9975,2.9961,2.996,2.9927,2.9913,2.9904,2.987,2.9859,2.9839,2.9815,2.9799,2.977,2.9742,2.9737,2.9716,2.9716,2.971,2.9693,2.9673,2.9696,2.9698,2.97,2.9672,2.9671,2.967,2.967,0,0,3.0026,2.9976,2.9976,2.996,2.9924,2.9912,2.9901,2.9876,2.9866,2.9843,2.9831,2.9805,2.9789,2.9772,2.9748,2.9743,2.9757,2.9726,2.9725,2.9731,2.9752,2.9764,2.9766,2.9742,2.9742,2.9742,2.9754,0,3.0045,3.0024,2.9996,2.9984,2.997,2.9936,2.9926,2.9902,2.988,2.9864,2.9839,2.982,2.9801,2.9791,2.9784,2.9757,2.976,2.9756,2.9729,2.9728,2.9736,2.9768,2.9781,2.9793,2.9755,2.9756,2.9756,0,3.0064,3.0043,3.003,2.9994,2.9987,2.9979,2.9953,2.9938,2.991,2.9894,2.9875,2.985,2.9835,2.9819,2.9796,2.9793,2.9781,2.9766,2.9765,2.976,2.9742,2.9762,2.9797,2.9798,2.9758,2.9757,2.9757,0,3.01,3.0069,3.0057,3.0044,3.0003,2.9998,2.998,2.9951,2.9937,2.9914,2.9904,2.9879,2.9865,2.9846,2.9814,2.9805,2.9794,2.9775,2.9778,2.9779,2.9776,2.9776,2.9808,2.9772,2.9771,2.9771,2.9771,0,3.0123,3.0116,3.0072,3.0065,3.0055,3.0022,3.0013,2.9992,2.9967,2.9953,2.9923,2.9911,2.9871,2.9853,2.9828,2.9812,2.9806,2.9792,2.9785,2.9793,2.9795,2.9783,2.978,2.9772,2.9772,2.9772,2.9772,0,3.0161,3.0132,3.0116,3.0078,3.0069,3.0063,3.003,3.0021,2.9997,2.998,2.9975,2.9937,2.9915,2.9882,2.985,2.9833,2.982,2.981,2.983,2.9825,2.983,2.9829,2.9853,2.9853,2.9819,2.982,2.982,0,3.0176,3.017,3.0132,3.0121,3.0105,3.0088,3.0074,3.0041,3.0028,2.9995,2.9989,2.9964,2.9943,2.9909,2.9877,2.9852,2.984,2.985,2.9836,2.9844,2.9838,2.9838,2.9836,2.9853,2.9853,2.9854,2.9854,0,3.0206,3.0192,3.0173,3.015,3.0134,3.0114,3.0092,3.0085,3.0047,3.0033,3.001,2.9994,2.9961,2.9936,2.9907,2.9886,2.9863,2.9859,2.9858,2.9866,2.9877,2.9869,2.9837,2.9858,2.9858,2.9858,2.9857,2.9857,3.0231,3.0224,3.0196,3.0176,3.0156,3.0137,3.0125,3.0101,3.0082,3.0054,3.0036,3.0014,2.9984,2.9942,2.9923,2.9904,2.9895,2.9894,2.9893,2.9893,2.9895,2.9882,2.9899,2.9899,2.9899,2.9898,2.9898,0,3.0257,3.0238,3.0221,3.0191,3.0175,3.0157,3.0132,3.0119,3.0101,3.0076,3.0056,3.0029,3.0005,2.9973,2.9946,2.9937,2.9926,2.9931,2.993,2.9925,2.9906,2.9909,2.9941,2.9941,2.9941,2.994,2.994,2.994,3.0269,3.0255,3.0238,3.0213,3.0193,3.0173,3.016,3.0141,3.0121,3.0093,3.0073,3.0053,3.0024,2.9995,2.9972,2.9963,2.9953,2.9961,2.9949,2.9931,2.9927,2.9923,2.9925,2.996,2.996,2.9969,2.9969,2.997]}]]